Terug naar catalogus

TITAN 3C TRANSTAGE DEB

LostHEO
NORAD 28835·DEBRIS·🇺🇸 United States

Gelanceerd Dec 21, 1965 vanaf Cape Canaveral Space Force Station

Loading…

Volgende Passages (komende 24 uur)

TLE

VerouderdSource: Space-Track

Epoch: Mar 16, 2026, 18:51 UTC

1 28835U 65108CM  26075.78559464  .00000070  00000-0  22560-2 0  9998
2 28835  27.4553 269.7049 6736644  73.6869   4.2320  2.75550414131645

Volg TITAN 3C TRANSTAGE DEB in realtime met AllMySat

Download on the App Store